Regional Weather Roundup
Issued by NWS

Home | Current Version | Previous Version | Text Only | Print | Product List | Glossary On
Versions: 1 2 3 4 5 6 7 8 9 10 11 12 13 14 15 16 17 18 19 20 21 22 23 24 25 26 27 28 29 30 31 32 33 34 35 36 37 38 39 40 41 42 43 44 45 46 47 48 49 50
000
ASUS45 KBOU 161007
RWRCO

WEATHER ROUNDUP FOR COLORADO
NATIONAL WEATHER SERVICE DENVER/BOULDER CO
400 AM MDT TUE SEP 16 2014

NOTE: "FAIR" INDICATES FEW OR NO CLOUDS BELOW 12000 FEET WITH NO
SIGNIFICANT WEATHER AND/OR OBSTRUCTIONS TO VISIBILITY.

COZ001>005-013-030-031-161100-
...NORTHWEST COLORADO...

CITY           SKY/WX    TMP DP  RH WIND       PRES   REMARKS
CRAIG          CLOUDY    41  38  89 S3        30.30S
HAYDEN         PTCLDY    52  36  54 E13       30.31S
MEEKER         CLEAR     44  38  79 NE7       30.31F
MOUNT WERNER   NOT AVBL
STEAMBOAT SPGS PTCLDY    45  38  78 CALM      30.34S
WALDEN         CLEAR     36  30  80 SE6       30.39S
$$

COZ006>008-011-161100-
...WEST CENTRAL VALLEYS...

CITY           SKY/WX    TMP DP  RH WIND       PRES   REMARKS
GRAND JUNCTION CLEAR     56  42  59 CALM      30.18S
MONTROSE       PTCLDY    57  40  52 S7        30.28S
EAGLE          CLEAR     45  39  81 E3        30.38S
RIFLE          CLEAR     52  40  63 S3        30.27S
DELTA          CLEAR     57  43  59 NE8       30.24R HAZE
NUCLA          NOT AVBL
$$

COZ017>023-064>068-161100-
...SOUTHWEST COLORADO...

CITY           SKY/WX    TMP DP  RH WIND       PRES   REMARKS
DURANGO        CLEAR     51  40  65 NE5       30.36F
CORTEZ         CLEAR     57  46  66 E8        30.30F
PAGOSA SPRINGS CLEAR     51  39  63 CALM      30.44S
TELLURIDE      NOT AVBL
WOLF CREEK PAS CLEAR     39  39 100 SW10      30.68S
$$

COZ009-010-012-014-032>034-037-058>063-161100-
...CENTRAL COLORADO...

CITY           SKY/WX    TMP DP  RH WIND       PRES   REMARKS
ASPEN          CLEAR     46  35  65 S6        30.40S
BUENA VISTA    CLEAR     44  37  77 NW6       30.44S
COPPER MTN     CLEAR     46  23  39 W14G20    30.66F
BERTHOUD PASS  FAIR      37  37 100 NW22      30.68S
COTTONWOOD PAS CLEAR     52  34  50 CALM      30.54S
GUNNISON       CLEAR     43  34  70 N3        30.45S
KREMMLING      CLEAR     36  34  93 CALM      30.42R
LEADVILLE      CLEAR     34  32  92 NE3       30.53F
MONARCH PASS   PTCLDY    43  32  65 SW14      30.77S
SALIDA         CLEAR     52  42  69 NW9       30.48S
SUNLIGHT       CLEAR     54  30  40 CALM      30.60F
WILKERSON PASS NOT AVBL
$$

COZ069>075-161100-
...SAN LUIS VALLEY/SANGRE DE CRISTO MOUNTAINS...

CITY           SKY/WX    TMP DP  RH WIND       PRES   REMARKS
ALAMOSA        CLEAR     44  41  89 S6        30.41S
LA VETA PASS   NOT AVBL
SAGUACHE       NOT AVBL
$$

COZ035-036-038>040-161100-
...NORTHERN COLORADO FRONT RANGE...

CITY           SKY/WX    TMP DP  RH WIND       PRES   REMARKS
DENVER INTL AP CLEAR     53  47  79 W8        30.19F
DMNS CITY PARK   N/A     51  49  92 S5        30.18F
AURORA         CLEAR     55  46  70 SW9       30.21F
FRONT RANGE AP NOT AVBL
ERIE MUNI ARPT CLEAR     47  45  94 CALM      30.18F
BOULDER MUN AP CLEAR     52  46  82 SW3       30.18F
CENTENNIAL     CLEAR     52  46  80 S7        30.22F
BROOMFIELD     CLEAR     54  45  71 W5        30.20F
FORT COLLINS   CLEAR     50  46  87 CALM      30.19F
LONGMONT       CLEAR     47  44  90 W3        30.20F
$$

COZ041-046-047-076>085-087-088-161100-
...PIKES PEAK/PALMER DIVIDE AND SOUTHERN FOOTHILLS...

CITY           SKY/WX    TMP DP  RH WIND       PRES   REMARKS
COLO. SPRINGS  CLOUDY    53  50  89 CALM      30.31F FOG
A. F. ACADEMY  CLOUDY    51  50  95 VRB2      30.31F
ELLICOTT       NOT AVBL
FALCON         FOG       50  49  99 W7        30.33F VSB 1/2
FORT CARSON    CLOUDY    52  52 100 SE6       30.29S FOG
LIMON          CLOUDY    54  51  90 SW7       30.25F
MONUMENT HILL  CLEAR     52  43  71 SW10      30.30F
TRINIDAD       PTCLDY    49  48  97 W5        30.28F
$$

COZ042>045-048>051-090-091-161100-
...NORTHEAST COLORADO...

CITY           SKY/WX    TMP DP  RH WIND       PRES   REMARKS
GREELEY ARPT   CLEAR     46  37  71 NW3       30.17F
AKRON          CLEAR     52  50  93 SW12      30.15F
BURLINGTON     CLOUDY    58  52  80 S14G23    30.21F
WRAY           PTCLDY    50  50 100 E5        30.17F
STERLING       CLEAR     52  52 100 CALM      30.13S
HOLYOKE        PTCLDY    54  52  94 S6        30.16F
FORT MORGAN    CLEAR     48  47  94 SW6       30.15F
$$

COZ086-089-092>099-161100-
...SOUTHEAST COLORADO...

CITY           SKY/WX    TMP DP  RH WIND       PRES   REMARKS
PUEBLO         FOG       53  52  96 SE5       30.25F VSB 3/4
LA JUNTA       PTCLDY    57  51  80 CALM      30.24F
LAMAR          CLOUDY    60  52  74 SW8       30.22F
SPRINGFIELD      N/A     55  54  96 S8        30.25F
$$



USA.gov is the U.S. government's official web portal to all federal, state and local government web resources and services.